Wendover, UT

9:21 PM MDT on July 20, 2017 (GMT -0600)
Wendover

Weather History for KENV - July, 2013

Change the Weather History Date:

Tuesday, July 2, 2013

  Actual Average Record
Temperature  
Mean Temperature 91 °F -  
Max Temperature 102 °F 90 °F 102 °F (2013)
Min Temperature 80 °F 63 °F 50 °F (1992)
Cooling Degree Days 26    
Growing Degree Days 41 (Base 50)    
Moisture  
Dew Point 41 °F    
Average Humidity 17    
Maximum Humidity 26    
Minimum Humidity 12    
Precipitation  
Precipitation 0.00 in - - ()
Sea Level Pressure  
Sea Level Pressure 30.08 in    
Wind  
Wind Speed 10 mph (ENE)    
Max Wind Speed 21 mph    
Max Gust Speed 26 mph    
Visibility 10 miles    
Events      
Averages and records for this station are not official NWS values.
T = Trace of Precipitation, MM = Missing Value Source: NWS Daily Summary

Daily Weather History Graph

Daily Weather History Graph

Search for Another Location

Airport or City:

Trip Planner

Search our weather history database for the weather conditions in past years. The results will help you decide how hot, cold, wet, or windy it might be!

Date:

Astronomy

Jul. 02, 2013 Rise Set
Actual Time 6:09 AM MDT 9:10 PM MDT
Civil Twilight 5:36 AM MDT 9:44 PM MDT
Nautical Twilight 4:53 AM MDT 10:26 PM MDT
Astronomical Twilight 4:04 AM MDT 11:15 PM MDT
Moon 2:15 AM MDT (7/2) 4:28 PM MDT (7/2)
Length of Visible Light 16h 07m
Length of Day
15h 01m
Waning Crescent, 26% of the Moon is Illuminated
Jul 2
Waning Crescent
Jul 8
New
Jul 15
First Quarter
Jul 22
Full
Jul 29
Last Quarter

Hourly Weather History & Observations

Time (MDT) Temp. Dew Point Humidity Pressure Visibility Wind Dir Wind Speed Gust Speed Precip Events Conditions
12:15 AM 91.4 °F 39.2 °F 16% 30.10 in 10.0 mi NNE 13.8 mph 19.6 mph N/A   Clear
12:35 AM 91.4 °F 39.2 °F 16% 30.10 in 10.0 mi North 16.1 mph 24.2 mph N/A   Clear
12:55 AM 89.6 °F 39.2 °F 17% 30.11 in 10.0 mi North 19.6 mph - N/A   Clear
1:35 AM 89.6 °F 39.2 °F 17% 30.11 in 10.0 mi North 20.7 mph 26.5 mph N/A   Clear
1:55 AM 89.6 °F 39.2 °F 17% 30.11 in 10.0 mi North 16.1 mph - N/A   Clear
2:15 AM 89.6 °F 41.0 °F 18% 30.11 in 10.0 mi North 17.3 mph 20.7 mph N/A   Clear
2:35 AM 89.6 °F 42.8 °F 20% 30.10 in 10.0 mi North 15.0 mph - N/A   Clear
2:55 AM 89.6 °F 42.8 °F 20% 30.09 in 10.0 mi North 16.1 mph - N/A   Clear
3:15 AM 89.6 °F 42.8 °F 20% 30.09 in 10.0 mi North 8.1 mph - N/A   Clear
3:35 AM 87.8 °F 42.8 °F 21% 30.10 in 10.0 mi West 8.1 mph - N/A   Clear
3:55 AM 86.0 °F 42.8 °F 22% 30.10 in 10.0 mi West 11.5 mph - N/A   Clear
4:15 AM 86.0 °F 41.0 °F 20% 30.10 in 10.0 mi West 8.1 mph - N/A   Clear
4:35 AM 86.0 °F 42.8 °F 22% 30.10 in 10.0 mi Calm Calm - N/A   Clear
4:55 AM 82.4 °F 42.8 °F 25% 30.10 in 10.0 mi East 4.6 mph - N/A   Clear
5:15 AM 82.4 °F 42.8 °F 25% 30.11 in 10.0 mi Calm Calm - N/A   Clear
5:35 AM 80.6 °F 42.8 °F 26% 30.11 in 10.0 mi West 3.5 mph - N/A   Clear
5:55 AM 82.4 °F 41.0 °F 23% 30.11 in 10.0 mi WNW 8.1 mph - N/A   Clear
6:15 AM 80.6 °F 41.0 °F 24% 30.11 in 10.0 mi Calm Calm - N/A   Clear
6:35 AM 80.6 °F 41.0 °F 24% 30.12 in 10.0 mi Calm Calm - N/A   Clear
7:15 AM 84.2 °F 41.0 °F 22% 30.13 in 10.0 mi NNE 6.9 mph - N/A   Clear
7:35 AM 82.4 °F 41.0 °F 23% 30.14 in 10.0 mi NE 8.1 mph - N/A   Clear
8:15 AM 82.4 °F 41.0 °F 23% 30.13 in 10.0 mi NW 4.6 mph - N/A   Clear
8:35 AM 82.4 °F 42.8 °F 25% 30.14 in 10.0 mi WNW 3.5 mph - N/A   Clear
8:55 AM 86.0 °F 42.8 °F 22% 30.14 in 10.0 mi Calm Calm - N/A   Clear
9:15 AM 89.6 °F 42.8 °F 20% 30.14 in 10.0 mi NE 5.8 mph - N/A   Clear
9:35 AM 89.6 °F 41.0 °F 18% 30.14 in 10.0 mi ENE 9.2 mph - N/A   Clear
9:55 AM 91.4 °F 41.0 °F 17% 30.14 in 10.0 mi ENE 6.9 mph - N/A   Clear
10:15 AM 91.4 °F 41.0 °F 17% 30.14 in 10.0 mi ENE 4.6 mph - N/A   Clear
10:35 AM 93.2 °F 41.0 °F 16% 30.14 in 10.0 mi WNW 5.8 mph - N/A   Clear
11:15 AM 95.0 °F 41.0 °F 15% 30.13 in 10.0 mi NE 11.5 mph 16.1 mph N/A   Clear
12:15 PM 96.8 °F 39.2 °F 14% 30.13 in 10.0 mi ENE 8.1 mph - N/A   Clear
12:35 PM 98.6 °F 39.2 °F 13% 30.12 in 10.0 mi North 16.1 mph 19.6 mph N/A   Clear
12:55 PM 98.6 °F 39.2 °F 13% 30.11 in 10.0 mi East 4.6 mph - N/A   Clear
1:15 PM 98.6 °F 41.0 °F 14% 30.11 in 10.0 mi ESE 11.5 mph - N/A   Clear
1:35 PM 100.4 °F 41.0 °F 13% 30.11 in 10.0 mi SE 8.1 mph - N/A   Clear
1:55 PM 100.4 °F 41.0 °F 13% 30.10 in 10.0 mi SE 10.4 mph - N/A   Clear
2:15 PM 100.4 °F 41.0 °F 13% 30.10 in 10.0 mi ESE 9.2 mph - N/A   Clear
2:35 PM 100.4 °F 41.0 °F 13% 30.09 in 10.0 mi SE 10.4 mph - N/A   Clear
2:55 PM 100.4 °F 41.0 °F 13% 30.08 in 10.0 mi SSE 9.2 mph 16.1 mph N/A   Clear
3:15 PM 102.2 °F 41.0 °F 12% 30.07 in 10.0 mi East 12.7 mph 19.6 mph N/A   Clear
3:35 PM 100.4 °F 41.0 °F 13% 30.06 in 10.0 mi East 15.0 mph 19.6 mph N/A   Clear
3:55 PM 100.4 °F 42.8 °F 14% 30.06 in 10.0 mi ENE 10.4 mph 19.6 mph N/A   Clear
4:15 PM 102.2 °F 42.8 °F 13% 30.04 in 10.0 mi East 15.0 mph - N/A   Clear
4:35 PM 102.2 °F 41.0 °F 12% 30.04 in 10.0 mi East 13.8 mph - N/A   Clear
4:55 PM 102.2 °F 41.0 °F 12% 30.04 in 10.0 mi East 11.5 mph 18.4 mph N/A   Clear
5:15 PM 102.2 °F 41.0 °F 12% 30.03 in 10.0 mi East 12.7 mph 16.1 mph N/A   Clear
5:35 PM 102.2 °F 41.0 °F 12% 30.02 in 10.0 mi ESE 11.5 mph - N/A   Clear
5:55 PM 102.2 °F 41.0 °F 12% 30.02 in 10.0 mi East 11.5 mph - N/A   Clear
6:15 PM 102.2 °F 41.0 °F 12% 30.01 in 10.0 mi East 13.8 mph - N/A   Clear
6:35 PM 100.4 °F 39.2 °F 12% 30.01 in 10.0 mi ESE 10.4 mph - N/A   Clear
6:55 PM 98.6 °F 39.2 °F 13% 30.01 in 10.0 mi East 10.4 mph - N/A   Clear
7:15 PM 98.6 °F 39.2 °F 13% 30.01 in 10.0 mi East 10.4 mph - N/A   Clear
7:35 PM 98.6 °F 39.2 °F 13% 30.01 in 10.0 mi ESE 10.4 mph - N/A   Clear
7:55 PM 98.6 °F 39.2 °F 13% 30.01 in 10.0 mi East 8.1 mph - N/A   Clear
8:35 PM 95.0 °F 41.0 °F 15% 30.01 in 10.0 mi East 3.5 mph - N/A   Clear
8:55 PM 95.0 °F 39.2 °F 14% 30.01 in 10.0 mi East 3.5 mph - N/A   Clear
9:15 PM 93.2 °F 39.2 °F 15% 30.01 in 10.0 mi Calm Calm - N/A   Clear
9:35 PM 93.2 °F 41.0 °F 16% 30.01 in 10.0 mi ENE 3.5 mph - N/A   Clear
10:15 PM 89.6 °F 44.6 °F 21% 30.02 in 10.0 mi North 3.5 mph - N/A   Clear
10:35 PM 89.6 °F 42.8 °F 20% 30.02 in 10.0 mi Calm Calm - N/A   Clear
10:55 PM 87.8 °F 42.8 °F 21% 30.03 in 10.0 mi Calm Calm - N/A   Clear
11:15 PM 87.8 °F 42.8 °F 21% 30.04 in 10.0 mi Calm Calm - N/A   Clear
11:35 PM 86.0 °F 42.8 °F 22% 30.04 in 10.0 mi North 6.9 mph - N/A   Clear
11:55 PM 87.8 °F 39.2 °F 18% 30.04 in 10.0 mi Calm Calm - N/A   Clear